EW4781 Weather Reports


time (UTC)temp
C
wind
direction
speed
KPH
gust
KPH
rain 1hr
cm
rain 24hr
cm
rain mn
cm
humidity
%
barometer
mb
20260504045118 8 290 6.4 8.0 0.00 0.00 0.00 59 1028.2
20260504044616 9 264 6.4 9.7 0.00 0.00 0.00 58 1028.4
20260504044113 8 210 3.2 3.2 0.00 0.00 0.00 59 1028.4
20260504043610 8 224 4.8 4.8 0.00 0.00 0.00 58 1028.6
20260504043107 9 280 4.8 4.8 0.00 0.00 0.00 58 1028.5
20260504042604 8 251 3.2 3.2 0.00 0.00 0.00 58 1028.6
20260504042101 9 222 4.8 8.0 0.00 0.00 0.00 58 1028.4
20260504041556 9 278 4.8 4.8 0.00 0.00 0.00 58 1028.5
20260504041053 9 295 4.8 4.8 0.00 0.00 0.00 58 1028.6
20260504040550 9 214 3.2 4.8 0.00 0.00 0.00 58 1028.7
20260504040047 9 252 3.2 4.8 0.00 0.00 0.00 58 1028.7
20260504035544 9 290 4.8 4.8 0.00 0.00 0.00 57 1028.5
20260504035040 9 248 4.8 4.8 0.00 0.00 0.00 57 1028.6
20260504034538 9 269 4.8 4.8 0.00 0.00 0.00 57 1028.7
20260504034035 9 262 3.2 3.2 0.00 0.00 0.00 57 1028.3
20260504033533 9 218 3.2 3.2 0.00 0.00 0.00 57 1028.7
20260504033030 10 256 1.6 3.2 0.00 0.00 0.00 57 1028.7
20260504032527 9 276 3.2 3.2 0.00 0.00 0.00 57 1028.5
20260504032024 10 267 4.8 4.8 0.00 0.00 0.00 57 1028.8
20260504031521 10 269 3.2 3.2 0.00 0.00 0.00 57 1028.5
20260504031016 10 260 3.2 3.2 0.00 0.00 0.00 56 1028.7
20260504030514 10 258 3.2 4.8 0.00 0.00 0.00 55 1028.6
20260504030010 10 256 1.6 3.2 0.00 0.00 0.00 55 1028.8
20260504025507 10 272 3.2 3.2 0.00 0.00 0.00 55 1028.9
20260504025004 10 237 4.8 4.8 0.00 0.00 0.00 55 1028.6
20260504024502 10 271 8.0 9.7 0.00 0.00 0.00 54 1029.0
20260504023958 10 276 6.4 9.7 0.00 0.00 0.00 54 1028.9
20260504023455 10 279 3.2 3.2 0.00 0.00 0.00 53 1028.8
20260504022950 10 245 4.8 4.8 0.00 0.00 0.00 54 1028.9
20260504022446 10 248 3.2 3.2 0.00 0.00 0.00 54 1028.7
20260504021943 11 292 8.0 11.3 0.00 0.00 0.00 53 1029.1
20260504021441 10 339 6.4 9.7 0.00 0.00 0.00 52 1029.0
20260504020938 11 294 1.6 3.2 0.00 0.00 0.00 52 1028.9
20260504020434 11 237 6.4 9.7 0.00 0.00 0.00 51 1029.2
20260504015931 11 288 8.0 9.7 0.00 0.00 0.00 50 1029.0
20260504015427 11 273 12.9 14.5 0.00 0.00 0.00 51 1029.0
20260504014923 11 294 9.7 11.3 0.00 0.00 0.00 51 1029.1
20260504014419 10 270 6.4 9.7 0.00 0.00 0.00 52 1028.9
20260504013916 11 280 9.7 9.7 0.00 0.00 0.00 51 1028.8
20260504013415 11 302 8.0 9.7 0.00 0.00 0.00 51 1028.8
20260504012910 11 272 4.8 4.8 0.00 0.00 0.00 51 1028.9
20260504012409 11 289 9.7 14.5 0.00 0.00 0.00 51 1029.0
20260504011906 11 250 6.4 9.7 0.00 0.00 0.00 51 1028.9
20260504011403 11 237 8.0 11.3 0.00 0.00 0.00 52 1028.8
20260504010858 11 255 4.8 4.8 0.00 0.00 0.00 51 1028.8
20260504010355 11 219 6.4 8.0 0.00 0.00 0.00 51 1029.0
20260504005851 11 288 6.4 8.0 0.00 0.00 0.00 50 1029.0
20260504005348 11 311 8.0 9.7 0.00 0.00 0.00 50 1029.2
20260504004845 11 241 9.7 17.7 0.00 0.00 0.00 49 1029.0
20260504004343 11 258 8.0 11.3 0.00 0.00 0.00 48 1028.7
20260504003839 11 270 12.9 14.5 0.00 0.00 0.00 47 1029.1
20260504003336 11 283 9.7 11.3 0.00 0.00 0.00 47 1028.9
20260504002833 11 301 17.7 20.9 0.00 0.00 0.00 46 1029.0
20260504002330 11 270 9.7 12.9 0.00 0.00 0.00 47 1028.9
20260504001828 11 289 12.9 17.7 0.00 0.00 0.00 48 1028.5
20260504001325 11 4 8.0 11.3 0.00 0.00 0.00 48 1028.5
20260504000821 11 280 17.7 20.9 0.00 0.00 0.00 46 1028.7
20260504000318 11 281 14.5 17.7 0.00 0.00 0.00 47 1028.8
20260503235816 11 267 17.7 27.4 0.00 0.00 0.00 45 1029.0
20260503235314 11 283 20.9 29.0 0.00 0.00 0.00 44 1028.6
20260503234811 11 271 11.3 14.5 0.00 0.00 0.00 44 1028.4
20260503234308 11 267 8.0 9.7 0.00 0.00 0.00 44 1028.6
20260503233806 11 291 9.7 11.3 0.00 0.00 0.00 44 1028.7
20260503233301 11 257 17.7 27.4 0.00 0.00 0.00 42 1028.7
20260503232759 11 297 8.0 11.3 0.00 0.00 0.00 43 1028.4
20260503232256 12 303 11.3 12.9 0.00 0.00 0.00 43 1028.5
20260503231754 12 256 11.3 14.5 0.00 0.00 0.00 43 1028.5
20260503231251 12 275 14.5 17.7 0.00 0.00 0.00 42 1028.5
20260503230746 12 305 17.7 22.5 0.00 0.00 0.00 42 1028.4
20260503230244 12 129 4.8 8.0 0.00 0.00 0.00 43 1028.2
20260503225741 12 258 11.3 16.1 0.00 0.00 0.00 43 1028.4
20260503225241 12 44 9.7 14.5 0.00 0.00 0.00 42 1028.2
20260503224738 12 291 11.3 25.7 0.00 0.00 0.00 42 1028.2
20260503224236 12 256 11.3 12.9 0.00 0.00 0.00 41 1028.3
20260503223734 12 266 16.1 22.5 0.00 0.00 0.00 42 1028.1
20260503223231 12 306 11.3 16.1 0.00 0.00 0.00 40 1028.4
20260503222727 12 276 16.1 25.7 0.00 0.00 0.00 41 1028.3
20260503222225 12 245 24.1 27.4 0.00 0.00 0.00 41 1028.6
20260503221723 12 284 14.5 16.1 0.00 0.00 0.00 41 1028.1
20260503221221 12 281 6.4 9.7 0.00 0.00 0.00 42 1028.1
20260503220717 12 284 14.5 17.7 0.00 0.00 0.00 41 1028.3
20260503220214 12 272 6.4 9.7 0.00 0.00 0.00 43 1028.3
20260503215711 12 269 11.3 12.9 0.00 0.00 0.00 42 1027.8
20260503215208 12 270 12.9 17.7 0.00 0.00 0.00 42 1028.2
20260503214706 12 294 12.9 17.7 0.00 0.00 0.00 42 1028.1
20260503214201 12 271 11.3 12.9 0.00 0.00 0.00 41 1028.2
20260503213655 13 280 8.0 14.5 0.00 0.00 0.00 42 1028.1
20260503213152 12 216 6.4 8.0 0.00 0.00 0.00 42 1027.8
20260503212649 13 289 11.3 14.5 0.00 0.00 0.00 44 1028.1
20260503212146 12 282 4.8 8.0 0.00 0.00 0.00 45 1027.8
20260503211644 12 303 8.0 11.3 0.00 0.00 0.00 46 1028.1
20260503211139 11 281 8.0 9.7 0.00 0.00 0.00 47 1028.0
20260503210636 11 241 8.0 9.7 0.00 0.00 0.00 46 1028.1
20260503210133 11 323 4.8 4.8 0.00 0.00 0.00 49 1027.7
20260503205628 11 281 4.8 4.8 0.00 0.00 0.00 47 1027.8
20260503205125 12 337 9.7 11.3 0.00 0.00 0.00 45 1028.2
20260503204621 11 295 6.4 8.0 0.00 0.00 0.00 46 1028.3
20260503204119 12 279 8.0 9.7 0.00 0.00 0.00 47 1028.1
20260503203616 12 274 9.7 11.3 0.00 0.00 0.00 45 1028.2
20260503203114 12 8 3.2 4.8 0.00 0.00 0.00 45 1028.4
20260503202611 11 249 8.0 9.7 0.00 0.00 0.00 47 1028.4
20260503202109 11 293 11.3 16.1 0.00 0.00 0.00 45 1028.4
20260503201607 11 301 4.8 4.8 0.00 0.00 0.00 47 1028.4
20260503201104 11 281 11.3 14.5 0.00 0.00 0.00 47 1028.5
20260503200600 11 255 11.3 12.9 0.00 0.00 0.00 46 1028.8
20260503200056 11 250 8.0 11.3 0.00 0.00 0.00 47 1028.8
20260503195554 11 358 6.4 11.3 0.00 0.00 0.00 47 1028.7
20260503195050 11 293 9.7 11.3 0.00 0.00 0.00 47 1028.7
20260503194547 11 278 11.3 14.5 0.00 0.00 0.00 47 1029.0
20260503194046 11 48 1.6 3.2 0.00 0.00 0.00 52 1029.1
20260503193539 11 7 6.4 8.0 0.00 0.00 0.00 49 1029.0
20260503193038 11 239 8.0 9.7 0.00 0.00 0.00 47 1029.1
20260503192535 11 241 6.4 8.0 0.00 0.00 0.00 49 1029.2
20260503192031 11 320 9.7 11.3 0.00 0.00 0.00 48 1029.3
20260503191528 11 298 12.9 16.1 0.00 0.00 0.00 47 1029.5
20260503191025 11 16 4.8 8.0 0.00 0.00 0.00 47 1029.3
20260503190522 11 264 4.8 4.8 0.00 0.00 0.00 51 1029.5
20260503190019 11 259 8.0 11.3 0.00 0.00 0.00 47 1029.9
20260503185515 11 241 6.4 9.7 0.00 0.00 0.00 50 1029.7
20260503185015 10 343 4.8 4.8 0.00 0.00 0.00 51 1029.9
20260503184512 10 259 17.7 24.1 0.00 0.00 0.00 48 1029.7
20260503184008 10 304 3.2 4.8 0.00 0.00 0.00 50 1030.1
20260503183504 10 245 8.0 11.3 0.00 0.00 0.00 50 1030.1
20260503183002 9 273 9.7 11.3 0.00 0.00 0.00 50 1030.2
20260503182500 9 280 9.7 20.9 0.00 0.00 0.00 49 1030.4
20260503181957 10 289 16.1 20.9 0.00 0.00 0.00 48 1030.4
20260503181454 10 273 19.3 24.1 0.00 0.00 0.00 47 1030.2
20260503180950 10 219 4.8 9.7 0.00 0.00 0.00 48 1030.5
20260503180449 10 353 6.4 9.7 0.00 0.00 0.00 47 1030.3
20260503175945 10 297 11.3 12.9 0.00 0.00 0.00 47 1030.4
20260503175443 10 300 14.5 17.7 0.00 0.00 0.00 46 1030.2
20260503174939 11 347 4.8 4.8 0.00 0.00 0.00 46 1030.4
20260503174437 10 287 9.7 12.9 0.00 0.00 0.00 46 1030.2
20260503173932 11 307 6.4 8.0 0.00 0.00 0.00 47 1030.5
20260503173428 10 257 16.1 17.7 0.00 0.00 0.00 47 1030.3
20260503172926 10 227 14.5 16.1 0.00 0.00 0.00 47 1030.2
20260503172423 10 263 6.4 8.0 0.00 0.00 0.00 49 1030.5
20260503171919 9 278 11.3 12.9 0.00 0.00 0.00 49 1030.6
20260503171416 10 321 4.8 4.8 0.00 0.00 0.00 50 1030.5
20260503170914 10 298 6.4 8.0 0.00 0.00 0.00 48 1030.5
20260503170409 9 303 11.3 16.1 0.00 0.00 0.00 50 1030.5
20260503150802 7 1 4.8 8.0 0.00 0.00 0.00 55 1031.7
20260503150258 7 200 6.4 9.7 0.00 0.00 0.00 56 1031.8
20260503140222 6 293 8.0 8.0 0.00 0.00 0.00 57 1032.2
20260503131152 5 251 4.8 4.8 0.00 0.00 0.00 67 1032.2
20260503130649 5 265 4.8 8.0 0.00 0.00 0.00 66 1032.3
20260503130147 5 291 8.0 11.3 0.00 0.00 0.00 66 1032.6
20260503120112 1 324 1.6 3.2 0.00 0.00 0.00 78 1032.3
20260503110539 1 273 4.8 8.0 0.00 0.00 0.00 82 1032.2
20260503090426 0 300 1.6 1.6 0.00 0.00 0.00 87 1031.7
20260503081353 1 309 1.6 3.2 0.00 0.00 0.00 87 1032.0
20260503080849 1 314 3.2 3.2 0.00 0.00 0.00 87 1032.1
20260503080347 1 327 1.6 1.6 0.00 0.00 0.00 87 1031.7
20260503072823 1 288 3.2 3.2 0.00 0.00 0.00 85 1031.7
20260503072320 1 337 3.2 3.2 0.00 0.00 0.00 85 1031.8
20260503071816 1 289 0.0 0.0 0.00 0.00 0.00 84 1032.0
20260503071314 1 272 6.4 11.3 0.00 0.00 0.00 84 1031.8
20260503070810 1 327 3.2 3.2 0.00 0.00 0.00 84 1031.7
20260503070308 1 278 6.4 8.0 0.00 0.00 0.00 84 1031.8
20260503060227 2 277 8.0 11.3 0.00 0.00 0.00 82 1031.9
20260503054714 2 274 9.7 14.5 0.00 0.00 0.00 82 1031.9
20260503054211 2 319 6.4 9.7 0.00 0.00 0.00 82 1032.0
20260503053709 2 291 4.8 8.0 0.00 0.00 0.00 83 1032.1
20260503053207 1 84 1.6 1.6 0.00 0.00 0.00 83 1032.3
20260503052703 1 252 1.6 3.2 0.00 0.00 0.00 84 1032.0
20260503052200 1 102 1.6 3.2 0.00 0.00 0.00 84 1032.2
20260503051655 2 192 3.2 3.2 0.00 0.00 0.00 84 1032.3
20260503051153 2 147 3.2 3.2 0.00 0.00 0.00 83 1032.4
20260503050649 2 125 0.0 1.6 0.00 0.00 0.00 82 1032.2
20260503050146 2 290 1.6 1.6 0.00 0.00 0.00 82 1032.6
20260503045643 2 253 4.8 4.8 0.00 0.00 0.00 82 1032.6